OPS 4682 DEB, 38437

Orbit data source: Space-Track

OPS 4682 DEB, 38437 is space debris in LEO originally from a launch on Sat, 03 Apr 1965 UTC launched from the Air Force Western Test Range (AFWTR). Debris objects in space refer to the collection of defunct objects orbiting the Earth. Examples of debris include non-operational satellites, rocket bodies, and fragments generated from explosions, collisions, or faulty payload assembly.

Loading next visibility...
Identifier
38437, 1965-027ES
Orbit
LEO
Country
Flag of USUS
Related business
Manufacturer
Unknown
Mission
Spacecraft
Bus & Motor
Unknown
Mass
Unknown
Launch date (UTC)
1965-04-03 (61 years ago)
Launch vehicle
Unknown
Launch site
Air Force Western Test Range (AFWTR)
Object type
Payload
Rocket body
Debris
Shape & HBR
Unknown shape, 0.1 m
Radar Cross Section
Medium (>0.1 m² and <1 m²)

Expand to show TLE details & history
Last TLE update: 19 hours ago

TLE from 19 hours ago
0 OPS 4682 DEB
1 38437U 65027ES  26235.33890285  .00000195  00000-0  65770-3 0  9994
2 38437  90.2398   7.1002 0036828 352.4161   7.6397 12.95951936559244
Epoch: 2026-08-23T08:08Z
TLE epoch observation values (Epoch: 2026-08-23T08:08:01.206Z)
Latitude
-0.00003°
Longitude
-86.54121°
Altitude
1,252.917 km
Speed
7.242 km/s
True Right ascension
00h 28m 24s
True Declination
0° 00' 00"
Sunlit
Object was in full shadow at epoch
Visualization orbit readout
Latitude
Unknown
Longitude
Unknown
Altitude
Unknown
Speed
Unknown
Apparent Right ascension
Unknown
Apparent Declination
Unknown
Sunlit
N/A
Visualization observer readout
Local Sidereal Time
17:50:23
Azimuth
Unknown
Elevation
Unknown
Doppler factor
Unknown
Orbital elements
Apogee altitude
1,303.307 km
Perigee altitude
1,246.936 km
Semi-major axis
7,653.258 km
Eccentricity
0.00368
Inclination
90.2398°
RAAN
7.1002°
Arg. of periapsis
352.4161°
True anomaly
7.69606°
Mean anomaly
7.6397°
Eccentric anomaly
7.66785°
Mean motion
3.24171 °/min
Orbital period
111.05 mins
BSTAR
0.0006577
Loading maneuver chart data...
Computing Atmospheric mass density...
Loading historical data...
Loading historical data...
Loading historical data...
Loading historical data...
Loading historical data...
Loading historical data...
Loading historical data...

Documentation

Showing up to 5 results
|